Regional Weather Roundup
Issued by NWS

Home | Current Version | Previous Version | Text Only | Print | Product List | Glossary Off
Versions: 1 2 3 4 5 6 7 8 9 10 11 12 13 14 15 16 17 18 19 20 21 22 23 24 25 26 27 28 29 30 31 32 33 34 35 36 37 38 39 40 41 42 43 44 45 46 47 48 49 50

153
ASUS43 KBIS 220310
RWRND

NORTH DAKOTA REGIONAL WEATHER ROUNDUP
NATIONAL WEATHER SERVICE BISMARCK ND
1000 PM CDT THU MAY 21 2015

NOTE: "FAIR" INDICATES FEW OR NO CLOUDS BELOW 12,000 FEET WITH NO
SIGNIFICANT WEATHER AND/OR OBSTRUCTIONS TO VISIBILITY.


NDZ001>003-009>011-017-220400-
NORTHWEST NORTH DAKOTA

CITY           SKY/WX    TMP DP  RH WIND       PRES   REMARKS
WILLISTON      CLEAR     62  33  33 E9        30.09R
MINOT          CLEAR     57  39  51 E5        30.11R
MINOT AFB      CLEAR     61  39  43 SE6       30.10R
$$

NDZ018>021-031>035-040>046-220400-
SOUTHWEST NORTH DAKOTA

CITY           SKY/WX    TMP DP  RH WIND       PRES   REMARKS
BISMARCK       MOCLDY    59  42  53 E8        30.11R
DICKINSON      CLEAR     54  34  46 S8        30.11R
GARRISON         N/A     63  36  36 E5        30.11R
HETTINGER ARPT CLEAR     55  34  45 SE6       30.14R
$$

NDZ004>008-012>016-024-026-027-054-220400-
NORTHEAST NORTH DAKOTA

CITY           SKY/WX    TMP DP  RH WIND       PRES   REMARKS
GRAND FORKS    CLEAR     53  40  61 NE5       30.11R
GRND FRKS AFB  CLEAR     51  41  69 CALM      30.12R
DEVILS LAKE    CLEAR     61  30  31 CALM      30.12R
$$

NDZ022-023-025-028>030-036>039-047>053-220400-
SOUTHEAST NORTH DAKOTA

CITY           SKY/WX    TMP DP  RH WIND       PRES   REMARKS
FARGO          CLEAR     55  43  63 N6        30.11R
JAMESTOWN      CLEAR     56  44  64 E6        30.12R
$$




USA.gov is the U.S. government's official web portal to all federal, state and local government web resources and services.